Location: Branche des Alpilles
(43.6087°N, 4.6976°E)
Time: 11:59:09
(UTC+00:00)

Cosmos 1515 Rocket - Pass Details

Date: 30 November 2020
Orbit: 605 x 631 km, 82.5° (Epoch: 25 January)

Event Time Altitude Azimuth Distance (km) Brightness Sun altitude
Rises 16:56:23 0° 160° (SSE) 2,866 7.0 -9.1°
Reaches altitude 10° 16:58:48 10° 149° (SSE) 1,971 6.0 -9.5°
Maximum altitude 17:02:34 29° 89° (E) 1,139 4.4 -10.1°
Drops below altitude 10° 17:06:23 10° 30° (NNE) 1,999 5.7 -10.8°
Enters shadow 17:07:33 - 24° (NNE) 2,420 6.2 -10.9°
